This demonstration page uses our WeatherBlox Daily Observations layout. Learn more.

Left ArrowRight Arrow

Hourly Observations for July 30, 2020

Temp ( °F °C ) Dew Point ( °F °C ) Humidity (%) Winds ( mph kmh ) Pressure ( in mb ) Visibility ( mi km ) Precip ( " mm )
12:15 am 00:15 Clear 75 24 68 20 78 78 SW 3 6 29.93 1013 10 16.0934 0 0
12:35 am 00:35 Clear 77 25 68 20 74 74 W 3 6 29.92 1013 10 16.0934 0 0
12:55 am 00:55 Clear 73 23 68 20 83 83 Calm 29.92 1013 10 16.0934 0 0
1:15 am 01:15 Clear 73 23 68 20 83 83 Calm 29.92 1013 10 16.0934 0 0
1:35 am 01:35 Clear 75 24 68 20 78 78 Calm 29.92 1013 10 16.0934 0 0
1:55 am 01:55 Clear 73 23 68 20 83 83 Calm 29.91 1013 10 16.0934 0 0
2:15 am 02:15 Clear 72 22 68 20 88 88 Calm 29.91 1013 10 16.0934 0 0
2:35 am 02:35 Clear 72 22 68 20 88 88 SW 3 6 29.91 1013 10 16.0934 0 0
2:55 am 02:55 Clear 73 23 68 20 83 83 SW 3 6 29.91 1013 10 16.0934 0 0
3:15 am 03:15 Clear 73 23 68 20 83 83 SSW 3 6 29.91 1013 10 16.0934 0 0
3:35 am 03:35 Clear 72 22 68 20 88 88 W 3 6 29.9 1012 10 16.0934 0 0
3:55 am 03:55 Clear 70 21 68 20 94 94 WNW 5 7 29.9 1013 10 16.0934 0 0
4:15 am 04:15 Clear 72 22 68 20 88 88 W 3 6 29.9 1012 10 16.0934 0 0
4:35 am 04:35 Clear 72 22 68 20 88 88 W 5 7 29.9 1012 10 16.0934 0 0
4:55 am 04:55 Clear 72 22 68 20 88 88 Calm 29.9 1012 10 16.0934 0 0
5:15 am 05:15 Clear 72 22 68 20 88 88 Calm 29.9 1012 10 16.0934 0 0
5:35 am 05:35 Clear 70 21 68 20 94 94 Calm 29.9 1013 10 16.0934 0 0
5:55 am 05:55 Clear 70 21 68 20 94 94 Calm 29.91 1013 10 16.0934 0 0
6:15 am 06:15 Sunny 70 21 68 20 94 94 Calm 29.91 1013 10 16.0934 0 0
6:35 am 06:35 Sunny 68 20 66 19 94 94 Calm 29.91 1013 10 16.0934 0 0
6:55 am 06:55 Sunny 68 20 68 20 100 100 Calm 29.92 1013 10 16.0934 0 0
7:15 am 07:15 Sunny 70 21 68 20 94 94 Calm 29.92 1013 10 16.0934 0 0
7:35 am 07:35 Sunny 70 21 68 20 94 94 Calm 29.92 1013 10 16.0934 0 0
7:55 am 07:55 Sunny 72 22 68 20 88 88 WNW 3 6 29.93 1013 10 16.0934 0 0
8:15 am 08:15 Sunny 75 24 70 21 83 83 Calm 29.92 1013 10 16.0934 0 0
8:35 am 08:35 Sunny 77 25 70 21 79 79 Calm 29.92 1013 10 16.0934 0 0
8:55 am 08:55 Sunny 79 26 70 21 74 74 Calm 29.91 1013 10 16.0934 0 0
9:15 am 09:15 Sunny 81 27 70 21 70 70 Calm 29.91 1013 10 16.0934 0 0
9:35 am 09:35 Sunny 82 28 72 22 70 70 WNW 5 7 29.91 1013 10 16.0934 0 0
9:55 am 09:55 Sunny 86 30 68 20 55 55 WNW 8 13 29.91 1013 10 16.0934 0 0
10:15 am 10:15 Sunny 86 30 68 20 55 55 WNW 5 7 29.91 1013 10 16.0934 0 0
10:35 am 10:35 Sunny 86 30 68 20 55 55 N 3 6 29.91 1013 10 16.0934 0 0
10:55 am 10:55 Sunny 88 31 68 20 52 52 NW 3 6 29.91 1013 10 16.0934 0 0
11:15 am 11:15 Sunny 88 31 68 20 52 52 N 3 6 29.91 1013 10 16.0934 0 0
11:35 am 11:35 Sunny 90 32 70 21 52 52 NNW 6 9 29.9 1012 10 16.0934 0 0
11:55 am 11:55 Sunny 90 32 68 20 49 49 Calm 29.9 1012 10 16.0934 0 0
12:15 pm 12:15 Sunny 90 32 68 20 49 49 N 5 7 29.89 1012 10 16.0934 0 0
12:35 pm 12:35 Sunny 90 32 68 20 49 49 Calm 29.88 1012 10 16.0934 0 0
12:55 pm 12:55 Sunny 91 33 66 19 44 44 Calm 29.87 1012 10 16.0934 0 0
1:15 pm 13:15 Sunny 93 34 64 18 39 39 SW 7 11 29.85 1011 10 16.0934 0 0
1:35 pm 13:35 Sunny 95 35 64 18 36 36 SW 3 6 29.85 1011 10 16.0934 0 0
1:55 pm 13:55 Partly Cloudy 95 35 64 18 36 36 W 6 9 29.84 1011 10 16.0934 0 0
2:15 pm 14:15 Partly Cloudy 95 35 64 18 36 36 SW 7 11 29.84 1011 10 16.0934 0 0
2:35 pm 14:35 Partly Cloudy 95 35 64 18 36 36 WSW 6 9 29.83 1010 10 16.0934 0 0
2:55 pm 14:55 Partly Cloudy 95 35 66 19 39 39 SSW 9 15 29.83 1010 10 16.0934 0 0
3:15 pm 15:15 Partly Cloudy 95 35 66 19 39 39 SSW 9 15 29.82 1010 10 16.0934 0 0
3:35 pm 15:35 Partly Cloudy 93 34 64 18 39 39 SSW 8 13 29.82 1010 10 16.0934 0 0
3:55 pm 15:55 Partly Cloudy 91 33 68 20 46 46 SW 5 7 29.81 1010 10 16.0934 0 0
4:15 pm 16:15 Sunny 91 33 68 20 46 46 W 5 7 29.81 1010 10 16.0934 0 0
4:35 pm 16:35 Sunny 91 33 68 20 46 46 Calm 29.81 1010 10 16.0934 0 0
4:55 pm 16:55 Sunny 90 32 70 21 52 52 WSW 5 7 29.81 1009 10 16.0934 0 0
5:15 pm 17:15 Sunny 90 32 70 21 52 52 WSW 3 6 29.81 1009 10 16.0934 0 0
5:35 pm 17:35 Sunny 90 32 70 21 52 52 Calm 29.8 1009 10 16.0934 0 0
5:55 pm 17:55 Sunny 90 32 70 21 52 52 WSW 3 6 29.81 1009 10 16.0934 0 0
6:15 pm 18:15 Sunny 90 32 72 22 55 55 WSW 3 6 29.81 1009 10 16.0934 0 0
6:35 pm 18:35 Sunny 88 31 72 22 59 59 W 3 6 29.81 1009 10 16.0934 0 0
6:55 pm 18:55 Sunny 88 31 73 23 62 62 Calm 29.81 1009 10 16.0934 0 0
7:15 pm 19:15 Sunny 88 31 73 23 62 62 W 3 6 29.8 1009 10 16.0934 0 0
7:35 pm 19:35 Partly Cloudy 86 30 73 23 66 66 Calm 29.81 1009 10 16.0934 0 0
7:55 pm 19:55 Mostly Cloudy 84 29 73 23 70 70 W 13 20 29.83 1010 10 16.0934 0 0
8:15 pm 20:15 Mostly Cloudy 77 25 77 25 100 100 S 12 19 29.85 1011 7 11.26538 0.11 2.794
8:35 pm 20:35 Partly Cloudy 75 24 73 23 94 94 SSE 8 13 29.86 1011 10 16.0934 0.11 2.794
8:55 pm 20:55 Mostly Cloudy 73 23 72 22 94 94 SE 5 7 29.87 1011 10 16.0934 0.11 2.794
9:15 pm 21:15 Cloudy 73 23 72 22 94 94 S 3 6 29.88 1012 10 16.0934 0 0
9:35 pm 21:35 Cloudy 73 23 72 22 94 94 SSW 3 6 29.89 1012 10 16.0934 0 0
9:55 pm 21:55 Mostly Cloudy 73 23 72 22 94 94 S 5 7 29.89 1012 10 16.0934 0 0
10:15 pm 22:15 Partly Cloudy 72 22 72 22 100 100 Calm 29.88 1012 10 16.0934 0 0
10:35 pm 22:35 Mostly Cloudy 72 22 72 22 100 100 Calm 29.87 1011 10 16.0934 0 0
10:55 pm 22:55 Mostly Cloudy 72 22 72 22 100 100 WNW 3 6 29.87 1011 10 16.0934 0 0
11:15 pm 23:15 Partly Cloudy 72 22 72 22 100 100 NW 3 6 29.86 1011 10 16.0934 0 0
11:35 pm 23:35 Partly Cloudy 72 22 70 21 94 94 Calm 29.86 1011 10 16.0934 0 0
11:55 pm 23:55 Partly Cloudy 70 21 70 21 100 100 N 3 6 29.86 1011 10 16.0934 0 0

Powered by AerisWeather